Location: Bremen
(53.0793°N, 8.8017°E)
Time: 08:17:46
(UTC+02:00)

Envisat - Visible Passes

Search period start: 21 October 2021 00:00
Search period end: 31 October 2021 00:00
Orbit: 764 x 766 km, 98.2° (Epoch: 20 October)

Date Brightness Start Highest point End Pass type
(mag) Time Alt. Az. Time Alt. Az. Time Alt. Az.
21 Oct 6.3 04:53:20 10° ENE 04:54:12 10° E 04:55:05 10° E visible
21 Oct 3.6 06:29:15 10° NNE 06:34:18 62° ESE 06:39:20 10° S visible
22 Oct 4.8 05:52:40 10° NNE 05:57:14 32° E 06:01:46 10° SSE visible
22 Oct 6.0 18:54:05 10° SW 18:57:44 20° W 19:01:23 10° NW visible
23 Oct 5.8 05:16:39 10° NE 05:19:58 17° E 05:23:14 10° SE visible
23 Oct 3.0 06:54:32 10° NNE 06:59:40 86° WNW 07:04:45 10° SSW visible
24 Oct 3.9 06:17:45 10° NNE 06:22:44 50° E 06:27:40 10° S visible
24 Oct 6.4 19:21:26 10° WSW 19:23:26 12° W 19:25:27 10° WNW visible
25 Oct 5.2 05:41:18 10° NE 05:45:35 27° E 05:49:51 10° SSE visible
25 Oct 3.1 07:19:57 10° N 07:24:57 56° WNW 07:29:54 10° SW visible
25 Oct 5.8 18:42:01 10° SW 18:46:03 24° W 18:50:08 10° NW visible
26 Oct 6.0 05:05:38 10° NE 05:08:15 14° E 05:10:52 10° ESE visible
26 Oct 3.1 06:43:00 10° NNE 06:48:08 79° ESE 06:53:13 10° SSW visible
27 Oct 4.3 06:06:19 10° NNE 06:11:08 41° E 06:15:56 10° SSE visible
27 Oct 6.1 19:08:51 10° WSW 19:11:44 15° W 19:14:38 10° NW visible
28 Oct 5.5 05:30:01 10° NE 05:33:57 22° E 05:37:51 10° SE visible
28 Oct 3.0 07:08:23 10° N 07:13:26 67° WNW 07:18:29 10° SSW visible
28 Oct 5.4 18:30:03 10° SSW 18:34:25 28° W 18:38:49 10° NNW visible
29 Oct 6.2 04:55:01 10° ENE 04:56:32 11° E 04:58:03 10° E visible
29 Oct 3.4 06:31:29 10° NNE 06:36:35 65° ESE 06:41:37 10° S visible
30 Oct 4.7 05:54:53 10° NNE 05:59:31 34° E 06:04:08 10° SSE visible
30 Oct 3.3 07:33:51 10° N 07:38:40 44° WNW 07:43:27 10° SW visible
30 Oct 6.0 18:56:33 10° SW 19:00:02 18° W 19:03:32 10° NW visible
